TimePDT,TemperatureF,Dew PointF,Humidity,Sea Level PressureIn,VisibilityMPH,Wind Direction,Wind SpeedMPH,Gust SpeedMPH,PrecipitationIn,Events,Conditions,WindDirDegrees,DateUTC
12:53 AM,70.0,57.0,63,29.90,10.0,North,5.8,-,N/A,,Clear,350,2013-09-11 07:53:00
1:53 AM,68.0,57.0,68,29.90,10.0,Calm,Calm,-,N/A,,Clear,0,2013-09-11 08:53:00
2:53 AM,66.0,57.9,75,29.91,10.0,Calm,Calm,-,N/A,,Clear,0,2013-09-11 09:53:00
3:53 AM,66.0,57.0,73,29.91,10.0,Calm,Calm,-,N/A,,Clear,0,2013-09-11 10:53:00
4:53 AM,64.0,55.0,73,29.91,10.0,Calm,Calm,-,N/A,,Clear,0,2013-09-11 11:53:00
5:53 AM,63.0,55.0,75,29.92,10.0,Calm,Calm,-,N/A,,Clear,0,2013-09-11 12:53:00
6:53 AM,63.0,55.0,75,29.93,10.0,Calm,Calm,-,N/A,,Clear,0,2013-09-11 13:53:00
7:53 AM,66.0,57.0,73,29.94,10.0,Calm,Calm,-,N/A,,Clear,0,2013-09-11 14:53:00
8:53 AM,70.0,59.0,68,29.94,10.0,Calm,Calm,-,N/A,,Clear,0,2013-09-11 15:53:00
9:53 AM,71.1,57.9,63,29.94,10.0,WNW,4.6,-,N/A,,Clear,300,2013-09-11 16:53:00
10:53 AM,73.9,59.0,59,29.94,10.0,NW,5.8,-,N/A,,Clear,310,2013-09-11 17:53:00
11:53 AM,77.0,59.0,54,29.93,10.0,WNW,5.8,-,N/A,,Clear,300,2013-09-11 18:53:00
12:53 PM,82.0,57.9,44,29.92,10.0,Variable,5.8,-,N/A,,Clear,0,2013-09-11 19:53:00
1:53 PM,84.0,57.9,41,29.91,10.0,Variable,6.9,-,N/A,,Clear,0,2013-09-11 20:53:00
2:53 PM,86.0,57.9,38,29.89,10.0,NW,9.2,-,N/A,,Clear,310,2013-09-11 21:53:00
3:53 PM,88.0,57.0,35,29.88,10.0,NW,9.2,-,N/A,,Clear,320,2013-09-11 22:53:00
4:53 PM,88.0,55.9,34,29.87,10.0,NW,5.8,-,N/A,,Clear,310,2013-09-11 23:53:00
5:53 PM,88.0,57.0,35,29.86,10.0,WNW,4.6,-,N/A,,Clear,300,2013-09-12 00:53:00
6:53 PM,84.9,57.0,38,29.86,10.0,NW,4.6,-,N/A,,Clear,320,2013-09-12 01:53:00
7:53 PM,80.1,57.0,45,29.87,10.0,Calm,Calm,-,N/A,,Clear,0,2013-09-12 02:53:00
8:53 PM,78.1,55.9,46,29.89,10.0,Variable,3.5,-,N/A,,Clear,0,2013-09-12 03:53:00
9:53 PM,75.0,55.9,51,29.91,10.0,Calm,Calm,-,N/A,,Clear,0,2013-09-12 04:53:00
10:53 PM,73.9,57.0,55,29.92,10.0,Calm,Calm,-,N/A,,Clear,0,2013-09-12 05:53:00
11:53 PM,72.0,57.9,61,29.93,10.0,Calm,Calm,-,N/A,,Clear,0,2013-09-12 06:53:00